Location: Kalberh�ni
(46.4610°N, 7.2453°E)
Time: 18:29:41
(UTC+00:00)

Meteor 2-1 Rocket - Pass Details

Date: 28 October 2021
Orbit: 830 x 906 km, 81.3° (Epoch: 28 November)

Event Time Altitude Azimuth Distance (km) Brightness Sun altitude
Rises 20:54:38 0° 254° (WSW) 3,403 7.7 -45.8°
Reaches altitude 10° 20:59:45 10° 295° (WNW) 2,458 7.1 -46.5°
Maximum altitude 21:00:39 10° 304° (NW) 2,430 7.1 -46.6°
Drops below altitude 10° 21:01:34 10° 314° (NW) 2,455 7.1 -46.7°
Sets 21:06:41 0° 355° (N) 3,388 7.8 -47.4°
